Flag for U.S.A. Weather past 2 weeks in Fullerton, California, U.S.A.

Now
77 °F

Sunny.


Feels Like: 78 °F
Forecast: 58 / 79 °F
Wind: 8 mph from West

Location: Fullerton Municipal Airport

Current Time: May 28, 2015 at 4:15:27 PM

Latest Report: May 28, 2015 at 2:53 PM


Visibility: 10 mi

Pressure: 29.93 "Hg

Humidity: 45%

Dew point: 54 °F

Location of FullertonLocation

Historic Weather in Fullerton — Graph

°F

Fullerton temperature yesterday

Maximum temperature yesterday: 75 °F (at 2:53 PM)
Minimum temperature yesterday: 61 °F (at 11:53 PM)
Average temperature yesterday: 66 °F

Past Weeks' High & Low Weather Summary

 TemperatureHumidityPressure
High76 °F (May 28, 1:53 PM)84% (May 14, 1:53 PM)30.08 "Hg (May 14, 1:53 PM)
Low55 °F (May 15, 10:53 AM)39% (May 21, 1:53 PM)29.82 "Hg (May 15, 4:53 PM)
Average64 °F64%29.97 "Hg
* Reported May 13 1:53 PM — May 28 1:53 PM, Fullerton, Weather by CustomWeather, © 2015

Note: Actual official high and low records may vary slightly from our data, if they occured in-between our weather recording intervals... More about our weather records

Advertising

Fullerton weather history for previous 24 hours

 ConditionsComfort  
Time TempWeatherWind HumidityBarometerVisibility
1:53 PM
Thu, May 28
76 °FSunny.8 mph47%29.94 "Hg10 mi
12:53 PM74 °FSunny.7 mph50%29.96 "Hg7 mi
11:53 AM72 °FSunny.3 mph53%29.98 "Hg6 mi
10:53 AM67 °FPartly sunny.5 mph61%30.00 "Hg6 mi
9:53 AM65 °FOvercast.3 mph66%30.00 "Hg6 mi
8:53 AM63 °FOvercast.No wind70%29.99 "Hg7 mi
7:53 AM62 °FOvercast.3 mph73%29.99 "Hg7 mi
6:53 AM61 °FOvercast.No wind75%29.98 "Hg9 mi
5:53 AM59 °FOvercast.No wind81%29.96 "Hg10 mi
4:53 AM58 °FOvercast.No wind81%29.96 "Hg10 mi
3:53 AM58 °FClear.No wind81%29.95 "Hg10 mi
2:53 AM59 °FClear.No wind78%29.95 "Hg10 mi
1:53 AM60 °FClear.No wind78%29.95 "Hg10 mi
12:53 AM61 °FClear.No wind75%29.97 "Hg10 mi
11:53 PM
Wed, May 27
61 °FClear.No wind78%29.98 "Hg10 mi
10:53 PM62 °FClear.No wind73%29.97 "Hg10 mi
9:53 PM63 °FClear.No wind70%29.96 "Hg10 mi
8:53 PM64 °FSunny.No wind68%29.96 "Hg10 mi
7:53 PM66 °FSunny.6 mph63%29.95 "Hg10 mi
6:53 PM68 °FSunny.6 mph59%29.93 "Hg10 mi
5:53 PM70 °FSunny.8 mph55%29.93 "Hg10 mi
4:53 PM72 °FSunny.9 mph49%29.93 "Hg10 mi
Weather by CustomWeather, © 2015

See weather overviewHow to use our weather pages